Location: Newark
(17.9939°S, 31.0481°E)
Time: 02:41:49
(UTC+00:00)

Courier 1B - Pass Details

Date: 16 November 2019
Orbit: 963 x 1209 km, 28.3° (Epoch: 14 December)

Event Time Altitude Azimuth Distance (km) Brightness Sun altitude
Exits shadow 01:26:48 11° 5° (N) 2,817 9.7 -23.4°
Drops below altitude 10° 01:27:09 10° 7° (N) 2,887 9.7 -23.4°
Sets 01:30:47 0° 25° (NNE) 3,788 10.5 -22.6°
